星链-1739 (STARLINK-1739 )

导读

STARLINK-1739是美国于2020年9月3日发射的星链卫星,隶属于SpaceX公司的星链互联网星座计划。该卫星旨在为全球提供高速低延迟宽带互联网服务,尤其覆盖偏远地区与网络基础设施匮乏区域。作为星链组网的组成单元,它依托近地轨道部署,助力实现全球无缝网络覆盖,推动太空互联网基础设施建设,至今已在星链星座中承担相应通信服务功能。

基本信息
目录编号:
46363
目录名称:
STARLINK-1739
国际标识:
2020-062AQ
轨道中心:
EARTH
卫星名称:
星链-1739
卫星全名:
星链-1739 (STARLINK-1739 )
卫星状态:
已陨落 最后检测时间 2025-05-25
发射日期:
2020-09-03 UTC
国别 :
美国 (US)
星等 :
--
轨道信息
数据来源 国际轨道数据
星历时间: 2025-05-25T08:34:06+0800
轨道信息已过期389天
半长轴: 6532.4km
偏心率: 0.0005062
轨道倾角: 53.002°
近地点辐角 258.327°
升交点赤经 122.081°
平近点角 215.342°
近地点: 150.958km
远地点: 157.572km
周期: 87.573分钟
每日圈数: 16.443477
详细信息
固有亮度:
5
最大亮度:
2.5
卫星平台:
Starlink V1.0
覆盖范围:
全球
运营商:
太空探索技术公司
运营商所在国:
美国
制造商(研发单位):
太空探索技术公司
制造商所在国:
美国
使用方式:
暂无
卫星简介
星链(Starlink)计划是由太空探索技术公司(SpaceX)提出的一个巨型低轨卫星互联网星座项目,计划在2019年至2024年间在太空搭建由约1.2万颗卫星组成的“星链”网络,其中1584颗将部署在地球上空550千米处的近地轨道,并从2020年开始工作。该卫星仍在工作。